{"data":{"norad_id":56367,"intl_designator":"2023-059A","name":"O3B MPOWER F4","alt_names":[],"object_type":"PAYLOAD","status":"ACTIVE","operator":null,"country":"O3B","launch_date":"2023-04-28","launch_site_code":"AFETR","launch_vehicle":null,"mission":null,"orbit_class":"UNKNOWN","rcs_meters":null,"size_class":null,"mass_kg":null,"dimensions":null,"purposes":["comms"],"wikipedia_slug":null,"has_3d_model":false,"image_url":null,"decayed_at":null,"tle_current":{"epoch":"2026-09-19T22:08:27.818880Z","epoch_age_seconds":64169,"freshness":"FRESH","line1":"1 56367U 23059A   26262.92254420 -.00000027  00000+0  00000+0 0  9990","line2":"2 56367   0.0596 342.6109 0007696 192.7717 184.6267  5.00115050 63343","mean_motion":5.0011505,"eccentricity":0.0007696,"inclination_deg":0.0596,"raan_deg":342.6109,"arg_perigee_deg":192.7717,"mean_anomaly_deg":184.6267,"bstar":0,"rev_number":6334,"period_min":287.93374644494,"perigee_km":8054.7827526941,"apogee_km":8077.0150127248,"semimajor_km":14444.035882709,"source":"CELESTRAK","updated_at":"2026-09-20T09:00:35.689268Z"}}}